Hourly Data Report for October 19, 2004

TORONTO CITY
ONTARIO

43°40'00.000" N
79°24'00.000" W
112.50 m
6158355
71508
XTO

Download Data

Hourly Data (October 2004)
Hourly Data Report for October 19, 2004
TIME
LST
Temp Definition
°C
Dew Point Definition
°C
Rel Hum Definition
%
Precip. Amount Definition
mm

Wind Dir Definition
10's deg

Wind Spd Definition
km/h
Visibility Definition
km
Stn Press Definition
kPa
Hmdx Definition


Wind Chill Definition


Weather Definition


00:00 7.6 3.5 75   LegendMM LegendMM LegendMM 100.37     LegendNANA
01:00 7.2 2.7 73   LegendMM LegendMM LegendMM 100.34     LegendNANA
02:00 6.8 1.9 71   LegendMM LegendMM LegendMM 100.32     LegendNANA
03:00 6.3 1.5 71   LegendMM LegendMM LegendMM 100.30     LegendNANA
04:00 6.6 1.0 67   LegendMM LegendMM LegendMM 100.32     LegendNANA
05:00 6.2 0.6 67   LegendMM LegendMM LegendMM 100.36     LegendNANA
06:00 6.0 0.3 67   LegendMM LegendMM LegendMM 100.41     LegendNANA
07:00 6.1 0.3 66   LegendMM LegendMM LegendMM 100.41     LegendNANA
08:00 6.2 0.2 65   LegendMM LegendMM LegendMM 100.46     LegendNANA
09:00 6.4 0.1 64   LegendMM LegendMM LegendMM 100.47     LegendNANA
10:00 6.9 0.7 65   LegendMM LegendMM LegendMM 100.46     LegendNANA
11:00 7.4 1.7 67   LegendMM LegendMM LegendMM 100.54     LegendNANA
12:00 8.1 2.3 67   LegendMM LegendMM LegendMM 100.47     LegendNANA
13:00 8.9 3.1 67   LegendMM LegendMM LegendMM 100.43     LegendNANA
14:00 9.2 3.3 67   LegendMM LegendMM LegendMM 100.41     LegendNANA
15:00 9.5 4.1 69   LegendMM LegendMM LegendMM 100.44     LegendNANA
16:00 9.5 3.8 68   LegendMM LegendMM LegendMM 100.48     LegendNANA
17:00 9.6 4.1 69   LegendMM LegendMM LegendMM 100.47     LegendNANA
18:00 9.5 4.0 69   LegendMM LegendMM LegendMM 100.48     LegendNANA
19:00 9.5 3.7 67   LegendMM LegendMM LegendMM 100.49     LegendNANA
20:00 9.2 3.4 67   LegendMM LegendMM LegendMM 100.49     LegendNANA
21:00 9.0 3.7 69   LegendMM LegendMM LegendMM 100.48     LegendNANA
22:00 8.9 3.9 71   LegendMM LegendMM LegendMM 100.48     LegendNANA
23:00 8.8 4.2 73   LegendMM LegendMM LegendMM 100.48     LegendNANA

Notes on Data Quality.

Legend

  • E = Estimated
  • M = Missing
  • NA = Not Available*
  • [empty] = Indicates an unobserved value
Date modified: